weather.gov     
National Weather Service

Terminal Aerodrome Forecast
NWS Homepage
This page is being discontinued on March 12, 2014.
The same data is available at this site. Please update your bookmarks.
Thank you, and we apologize for the inconvenience.
Please send an email to SR-SRH.Webmaster@noaa.gov with any concerns.


Current Version
Previous Version:    01  02  03  04  05  06  07  08  09  10  11  12  13  14  15  16  17  18  19  20  21  22  23  24  25  
[Printable]
009
FTUS41 KLWX 232300
TAFCHO
TAF
KCHO 232331Z 2400/2424 10004KT 3SM -RA OVC015 WS020/17030KT
     FM240300 07004KT 3SM RA OVC008 WS020/15040KT
     FM240900 VRB03KT 1SM -RA OVC003 WS020/20040KT
     FM241100 21007KT P6SM BKN003 WS020/21035KT
     FM241200 20009KT P6SM BKN008
     FM241400 20012G18KT P6SM BKN035
     FM241600 20016G25KT P6SM SCT060=


U.S. Dept. of Commerce
NOAA National Weather Service
1325 East West Highway
Silver Spring, MD 20910
E-mail: w-nws.webmaster@noaa.gov
Page last modified: May 16, 2007
NATIONAL WEATHER SERVICE: for Safety, for Work, for Fun - FOR LIFE